Flag for Faroe Islands Weather past 2 weeks in Tórshavn, Faroe Islands, Faroe Islands

Now
54 °F

Low clouds.


Feels Like: 50 °F
Forecast: 53 / 55 °F
Wind: 12 mph from Southwest

Location: Soervaag / Vagar

Current Time: Sep 2, 2014 at 10:59:08 AM

Latest Report: Sep 2, 2014 at 10:20 AM


Visibility: 4 mi

Pressure: 29.89 "Hg

Humidity: 100%

Dew point: 54 °F

Location of TórshavnLocation

Historic Weather in Tórshavn — Graph

°F

Tórshavn temperature yesterday

Maximum temperature yesterday: 54 °F (at 8:20 AM)
Minimum temperature yesterday: 52 °F (at 12:20 AM)
Average temperature yesterday: 53 °F

Past Weeks' High & Low Weather Summary

 TemperatureHumidityPressure
High61 °F (Aug 29, 3:20 PM)100% (Aug 24, 1:20 AM)30.04 "Hg (Aug 24, 1:20 AM)
Low43 °F (Aug 26, 2:50 AM)62% (Aug 23, 11:50 AM)29.56 "Hg (Aug 31, 7:50 PM)
Average51 °F86%29.87 "Hg
* Reported Aug 18 9:20 AM — Sep 2 9:50 AM, Tórshavn, Weather by CustomWeather, © 2014

Note: Actual official high and low records may vary slightly from our data, if they occured in-between our weather recording intervals... More about our weather records

Advertising

Tórshavn weather history for previous 24 hours

 ConditionsComfort  
Time TempWeatherWind HumidityBarometerVisibility
9:50 AM
Sep 2
54 °FSprinkles. Low clouds.14 mph100%29.89 "Hg4 mi
9:20 AM54 °FDrizzle. Low clouds.9 mph94%29.89 "HgN/A
8:50 AM54 °FLight rain. Low clouds.2 mph94%29.89 "Hg4 mi
8:20 AM54 °FLight rain. Low clouds.9 mph94%29.89 "Hg4 mi
7:50 AM54 °FLight rain. Low clouds.12 mph94%29.86 "Hg4 mi
7:20 AM54 °FDrizzle. Low clouds.10 mph94%29.86 "Hg4 mi
6:50 AM54 °FDrizzle. Fog.9 mph94%29.86 "Hg2 mi
6:20 AM54 °FLow clouds.10 mph94%29.86 "Hg3 mi
5:50 AM54 °FLow clouds.7 mph94%29.86 "Hg3 mi
5:20 AM54 °FLow clouds.8 mph94%29.86 "Hg4 mi
4:50 AM54 °FLow clouds.8 mph94%29.86 "Hg4 mi
4:20 AM54 °FLow clouds.13 mph94%29.86 "Hg3 mi
3:50 AM54 °FLow clouds.12 mph94%29.86 "Hg3 mi
3:20 AM54 °FLow clouds.14 mph94%29.86 "Hg4 mi
2:50 AM54 °FLow clouds.10 mph100%29.86 "Hg4 mi
2:20 AM54 °FLow clouds.13 mph94%29.86 "Hg3 mi
1:50 AM54 °FFog.12 mph100%29.83 "Hg2 mi
1:20 AM54 °FFog.13 mph94%29.83 "Hg2 mi
12:50 AM54 °FLow clouds.13 mph94%29.83 "Hg4 mi
12:20 AM54 °FLow clouds.13 mph94%29.83 "Hg4 mi
11:50 PM
Sep 1
54 °FLow clouds.15 mph94%29.83 "Hg3 mi
11:20 PM54 °FLow clouds.12 mph94%29.83 "Hg4 mi
10:50 PM54 °FLow clouds.10 mph94%29.83 "Hg4 mi
10:20 PM54 °FLow clouds.7 mph94%29.83 "Hg3 mi
9:20 PM54 °FSprinkles. Fog.12 mph94%29.83 "Hg2 mi
8:50 PM54 °FDrizzle. Low clouds.8 mph94%29.83 "Hg3 mi
8:20 PM54 °FLow clouds.7 mph94%29.80 "Hg4 mi
7:50 PM54 °FLow clouds.6 mph94%29.80 "Hg3 mi
7:20 PM54 °FLow clouds.8 mph94%29.80 "Hg4 mi
6:50 PM54 °FLow clouds.9 mph94%29.77 "Hg4 mi
6:20 PM54 °FLow clouds.12 mph94%29.77 "Hg4 mi
5:50 PM54 °FPartly sunny.9 mph94%29.77 "Hg3 mi
5:20 PM54 °FDrizzle. Low clouds.13 mph94%29.74 "Hg2 mi
4:50 PM54 °FLow clouds.9 mph94%29.74 "Hg5 mi
4:20 PM54 °FLow clouds.12 mph94%29.74 "Hg4 mi
3:50 PM54 °FLow clouds.13 mph94%29.74 "Hg3 mi
3:20 PM54 °FLow clouds.16 mph94%29.74 "HgN/A
2:50 PM54 °FLow clouds.13 mph94%29.74 "HgN/A
2:20 PM54 °FLow clouds.9 mph94%29.74 "Hg5 mi
1:50 PM54 °FLow clouds.15 mph94%29.71 "Hg6 mi
1:20 PM54 °FLow clouds.9 mph94%29.71 "HgN/A
12:50 PM54 °FPartly sunny.8 mph94%29.71 "Hg4 mi
12:20 PM54 °FSprinkles. Low clouds.15 mph94%29.68 "Hg4 mi
11:50 AM52 °FSprinkles. Low clouds.20 mph100%29.68 "Hg3 mi
11:20 AM52 °FSprinkles. Partly sunny.15 mph100%29.68 "Hg3 mi
10:50 AM52 °FDrizzle. Partly sunny.18 mph100%29.68 "Hg2 mi
10:20 AM54 °FOvercast.21 mph94%29.68 "Hg5 mi
Weather by CustomWeather, © 2014

See weather overviewHow to use our weather pages